Wind_Speed
10 9 9 8 7 6 6 6 5 5 4 4 4 3 3 3 3 4 4 4 10 7 6 4 6 6 7 9 9 8 7 7 6
9 9 8 7 7 7 7 7 7 7 6 6 6 5 5 5 5 5 5 5 6 6 6 6 6 6 6 6 6 6 5 6 6
8 9 9 8 7 7 7 7 7 6 6 6 5 5 5 5 6 6 6 5 6 6 6 7 7 6 6 6 6 6 7 6 6
6 6 6 7 7 8 8 8 8 7 7 6 6 5 6 6 7 6 7 7 6 7 7 8 8 8 7 7 8 7 7 7 8
4 5 5 5 5 5 5 5 5 5 5 5 5 5 6 7 8 7 8 9 8 9 10 9 9 9 8 8 8 8 7 7 7
4 5 5 4 5 5 5 6 6 6 6 6 6 7 8 9 9 9 10 10 10 10 10 10 9 9 9 8 8 8 7 7 6
7 7 7 8 8 8 8 8 8 7 7 8 8 8 10 11 11 12 12 14 13 13 12 11 11 9 9 8 8 7 7 6 7
13 13 11 11 11 12 13 13 12 12 12 12 12 12 12 12 13 14 15 17 17 16 14 12 12 10 9 9 8 7 7 6 7
18 17 17 16 15 14 16 17 17 17 16 16 16 16 16 16 14 16 19 19 18 16 15 14 13 11 10 9 7 7 7 6 6
23 22 21 21 20 20 20 20 20 20 20 20 20 19 19 19 18 20 20 19 17 15 16 15 14 13 11 10 9 8 7 7 6
25 27 26 26 25 25 26 25 24 24 24 23 23 22 21 21 22 21 21 19 19 17 17 16 15 14 13 12 11 10 9 9 8
27 28 29 28 27 28 28 29 29 28 27 26 26 26 25 24 25 22 22 20 20 19 18 17 16 16 15 14 13 13 12 12 11
27 28 29 30 29 29 30 31 32 31 30 29 29 29 28 26 26 27 23 21 20 20 19 18 18 18 17 17 16 16 16 15 15
31 31 30 31 31 30 29 31 31 31 32 32 33 32 31 30 29 27 28 23 21 22 21 21 20 19 19 19 19 19 19 19 19
33 32 33 34 35 35 32 32 33 33 33 34 35 35 35 33 32 30 28 28 25 23 23 23 22 21 21 22 22 22 22 22 22
36 35 33 35 37 37 37 36 37 36 35 35 34 37 36 37 34 33 31 29 28 28 25 26 25 23 22 23 24 24 23 23 24
41 40 39 37 39 39 40 36 38 39 37 38 35 38 39 37 37 36 34 32 30 31 30 28 28 24 26 29 29 26 25 27 28
44 45 44 42 40 41 41 41 39 40 39 39 38 39 41 38 37 37 37 36 34 32 34 33 33 32 34 35 32 31 29 30 30
42 47 47 46 45 44 44 43 42 43 44 42 41 41 44 43 41 38 37 37 37 36 36 37 37 39 39 36 35 34 34 35 35
37 37 42 48 50 51 49 48 50 50 50 48 46 44 44 45 43 41 39 39 38 40 39 37 40 42 42 39 39 38 36 35 38
Wind_Direction
42 45 50 54 57 57 58 59 62 60 58 57 48 30 13 12 7 16 13 28 68 56 33 18 32 37 37 57 43 40 39 45 40
41 44 46 50 55 60 64 64 66 62 55 50 42 28 18 7 18 15 16 16 16 3 3 359 359 1 357 347 345 342 41 69 72
44 48 49 48 51 54 58 59 56 55 52 45 36 26 20 12 30 17 13 12 2 355 346 339 343 343 332 320 319 312 307 300 287
34 33 38 42 45 48 50 51 50 48 46 45 38 27 17 12 30 13 4 358 354 342 334 334 333 329 324 320 316 310 300 293 288
2 12 15 20 18 22 25 26 27 29 28 19 9 2 359 352 12 355 352 349 347 337 331 331 328 324 321 316 310 305 303 299 294
321 314 317 324 329 339 342 348 353 355 349 341 335 335 335 335 346 341 340 334 332 327 324 321 318 318 318 315 312 311 308 307 302
258 260 273 279 284 286 294 302 307 314 310 309 314 319 321 322 329 326 325 320 320 316 313 313 313 312 310 308 306 308 310 308 308
252 257 260 266 278 284 284 285 288 290 293 294 292 296 297 304 318 317 316 311 307 304 304 304 301 298 297 295 300 305 307 310 308
255 254 261 267 269 273 280 282 282 284 284 284 286 286 289 294 306 311 312 308 302 298 295 293 290 289 289 289 289 292 298 301 305
266 265 264 265 268 271 269 272 277 278 280 281 283 283 284 288 295 306 312 306 302 296 294 291 287 287 283 278 281 284 285 291 295
266 267 268 267 267 267 269 269 271 274 278 280 282 282 281 283 288 298 308 305 300 296 294 288 284 280 277 276 273 273 276 281 286
270 267 267 268 270 272 271 272 272 273 276 279 280 280 279 279 284 290 300 299 298 296 293 286 282 279 276 275 273 273 275 279 281
279 276 274 270 268 269 271 272 273 274 276 277 277 277 276 274 277 285 291 294 293 290 287 284 282 279 275 271 271 273 276 280 282
276 274 274 277 277 273 270 271 272 275 277 278 277 275 274 272 272 276 285 287 288 287 284 282 279 277 276 273 272 272 273 275 277
275 273 273 274 277 276 274 272 273 274 276 277 276 274 273 270 270 272 277 285 285 283 282 280 278 279 281 280 275 272 270 272 276
275 274 273 273 275 276 275 273 273 274 275 274 276 276 274 272 269 269 272 278 282 282 279 278 276 277 281 283 282 275 272 274 277
274 272 272 272 272 273 274 272 274 272 270 273 274 275 275 272 272 269 269 272 274 278 278 274 273 269 282 281 277 274 274 276 276
272 273 271 270 271 270 272 273 272 272 269 269 272 274 275 275 271 270 269 271 273 272 275 277 272 263 281 283 268 271 276 276 281
263 268 269 270 267 265 267 270 271 271 269 268 270 273 274 275 275 272 270 268 273 275 272 273 273 270 281 277 266 270 279 281 279
269 265 262 266 267 267 266 267 270 271 270 269 271 269 272 274 275 275 270 268 270 271 270 270 268 268 276 274 265 271 274 284 282
Height
3183 3183 3183 3183 3183 3183 3183 3184 3184 3185 3185 3185 3185 3185 3185 3185 3185 3185 3184 3184 3184 3184 3184 3184 3183 3183 3183 3182 3182 3182 3181 3180 3181
3186 3186 3186 3185 3185 3185 3185 3186 3186 3186 3186 3186 3186 3186 3186 3186 3186 3185 3185 3185 3185 3184 3184 3184 3184 3183 3183 3183 3182 3182 3181 3181 3181
3188 3187 3187 3187 3187 3187 3187 3187 3187 3187 3187 3187 3187 3187 3186 3186 3187 3186 3186 3186 3185 3184 3183 3183 3183 3182 3182 3181 3182 3181 3181 3181 3181
3189 3189 3190 3190 3189 3189 3189 3189 3189 3189 3189 3188 3188 3187 3187 3187 3187 3186 3186 3185 3185 3184 3183 3183 3182 3182 3181 3181 3180 3180 3180 3180 3180
3190 3190 3191 3191 3191 3191 3190 3190 3190 3190 3189 3189 3189 3188 3188 3187 3187 3186 3186 3185 3186 3184 3183 3182 3182 3181 3180 3179 3179 3179 3178 3178 3178
3189 3190 3191 3191 3191 3191 3191 3191 3191 3190 3190 3189 3189 3188 3188 3187 3188 3187 3186 3185 3185 3184 3183 3182 3181 3180 3179 3178 3177 3177 3177 3177 3176
3189 3189 3190 3190 3190 3190 3190 3191 3191 3190 3190 3189 3188 3188 3187 3187 3187 3186 3185 3184 3184 3183 3182 3181 3180 3179 3178 3177 3176 3176 3176 3175 3175
3186 3187 3188 3188 3189 3189 3189 3189 3189 3189 3189 3188 3187 3186 3186 3185 3186 3184 3183 3183 3182 3181 3180 3179 3178 3177 3176 3176 3175 3174 3174 3174 3174
3184 3185 3185 3186 3186 3187 3187 3186 3186 3186 3185 3186 3185 3184 3184 3183 3184 3183 3181 3180 3179 3178 3177 3176 3175 3175 3174 3174 3173 3173 3173 3172 3172
3181 3182 3182 3182 3183 3182 3183 3183 3183 3183 3182 3182 3182 3182 3180 3179 3180 3180 3179 3177 3176 3176 3175 3174 3173 3173 3172 3172 3172 3171 3171 3171 3170
3176 3176 3177 3179 3178 3179 3178 3179 3179 3179 3179 3178 3178 3178 3177 3176 3175 3177 3176 3175 3174 3173 3172 3171 3171 3170 3170 3170 3170 3169 3169 3169 3169
3171 3171 3172 3173 3173 3174 3174 3174 3174 3174 3174 3174 3174 3173 3173 3172 3171 3173 3173 3172 3170 3170 3169 3168 3167 3167 3167 3167 3167 3167 3167 3166 3166
3166 3167 3167 3167 3168 3168 3168 3168 3168 3169 3169 3169 3169 3168 3168 3167 3167 3165 3169 3168 3167 3166 3165 3164 3164 3164 3163 3163 3163 3163 3163 3163 3163
3161 3161 3163 3162 3162 3163 3163 3162 3162 3163 3163 3163 3162 3163 3162 3162 3162 3162 3160 3164 3163 3161 3161 3160 3160 3159 3159 3159 3159 3158 3158 3158 3158
3155 3156 3157 3157 3156 3156 3157 3157 3156 3156 3157 3156 3155 3156 3156 3156 3156 3156 3156 3155 3157 3158 3156 3155 3155 3154 3154 3155 3154 3154 3153 3153 3153
3148 3148 3150 3149 3149 3150 3150 3151 3150 3150 3150 3148 3149 3147 3149 3148 3150 3149 3150 3151 3149 3149 3152 3150 3149 3149 3148 3149 3149 3148 3147 3147 3147
3140 3141 3141 3142 3141 3142 3140 3143 3143 3142 3143 3141 3141 3139 3140 3142 3142 3143 3143 3143 3144 3142 3143 3144 3143 3142 3142 3141 3142 3142 3141 3141 3140
3132 3131 3132 3134 3134 3133 3134 3132 3134 3133 3133 3133 3134 3131 3130 3133 3134 3135 3135 3135 3136 3137 3135 3136 3135 3135 3134 3133 3134 3134 3134 3132 3132
3125 3123 3123 3123 3125 3125 3125 3125 3124 3124 3123 3124 3125 3125 3122 3122 3124 3127 3127 3127 3127 3128 3128 3128 3127 3125 3125 3126 3125 3125 3125 3124 3125
3115 3116 3115 3114 3114 3115 3115 3116 3114 3113 3113 3114 3116 3117 3115 3113 3114 3116 3118 3117 3118 3118 3119 3119 3118 3116 3114 3114 3116 3116 3116 3116 3116